Tracking 18843 objects as of 20-November-2017
HD Live streaming from Space Station
objects crossing your sky now

EKRAN 6

Track EKRAN 6 now!
EKRAN 6 is classified as:


NORAD ID: 12120
Int'l Code: 1980-104A
Perigee: 35,750.3 km
Apogee: 35,828.7 km
Inclination: 12.9 °
Period: 1,435.9 minutes
Semi major axis: 42160 km
RCS: 6.3095 m2 (large)
Launch date: December 26, 1980
Source: Commonwealth of Independent States (former USSR) (CIS)
Launch site: TYURATAM MISSILE AND SPACE COMPLEX (TTMTR)
aabbcc
Your satellite tracking list
Your tracking list is empty




NASA's NSSDC Master Catalog

Two Line Element Set (TLE):
1 12120U 80104A   17323.61578199  .00000075  00000-0  00000+0 0  9992
2 12120  12.9332 324.7678 0009306 325.0320  43.4087  1.00286964 95992
Source of the keplerian elements: AFSPC